STARLINK-34928, 65195

Orbit data source: Space-Track

STARLINK-34928, 65195 is a payload satellite owned by SpaceX/Seattle (US) in SSO that was launched on Thu, 14 Aug 2025 UTC via an FALCON 9 launch vehicle from the Air Force Western Test Range (AFWTR). Payload-class satellites include a variety of spacecraft equipped with specific instruments for various scientific and technological missions. These include communications satellites like Starlink; space stations such as the ISS; scientific satellites like the Hubble; Earth observation satellites from companies like Planet Labs, Umbra, and HawkEye 360; GPS; miniature CubeSats for education and research; and military/defense satellites.

Loading next visibility...
Identifier
65195, 2025-175X
Orbit
SSO
Country
Flag of USUS
Related business
Manufacturer
SpaceX/Seattle
Mission
Operational Commercial Communications
Bus & Motor
STARLINK V2MO, Unknown motor
Mass
575 kg wet, ~530 kg dry
Launch date (UTC)
2025-08-14 (10 months ago)
Launch vehicle
FALCON 9
Launch site
Air Force Western Test Range (AFWTR)
Object type
Payload
Rocket body
Debris
Shape & HBR
Box + 2 Pan, 17.7 m
Radar Cross Section
36.964 m², Large (>1 m²)

Expand to show TLE details & history
Last TLE update: 12 hours ago

TLE from 12 hours ago
0 STARLINK-34928
1 65195U 25175X   26171.36087147  .00016799  00000-0  11653-2 0  9999
2 65195  97.3395  42.8250 0002262  80.7586 279.3897 15.05655240 48090
Epoch: 2026-06-20T08:39Z
TLE epoch observation values (Epoch: 2026-06-20T08:39:39.295Z)
Latitude
-0.00002°
Longitude
4.33467°
Altitude
552.312 km
Speed
7.586 km/s
True Right ascension
02h 51m 18s
True Declination
0° 00' 00"
Sunlit
Object was in daylight at epoch
Visualization orbit readout
Latitude
Unknown
Longitude
Unknown
Altitude
Unknown
Speed
Unknown
Apparent Right ascension
Unknown
Apparent Declination
Unknown
Sunlit
N/A
Visualization observer readout
Local Sidereal Time
07:16:57
Azimuth
Unknown
Elevation
Unknown
Doppler factor
Unknown
Orbital elements
Apogee altitude
548.044 km
Perigee altitude
544.911 km
Semi-major axis
6,924.614 km
Eccentricity
0.00023
Inclination
97.3395°
RAAN
42.825°
Arg. of periapsis
80.7586°
True anomaly
279.36413°
Mean anomaly
279.3897°
Eccentric anomaly
279.37691°
Mean motion
3.7666 °/min
Orbital period
95.58 mins
BSTAR
0.0011653
Loading maneuver chart data...
Computing Atmospheric mass density...
Loading historical data...
Loading historical data...
Loading historical data...
Loading historical data...
Loading historical data...
Loading historical data...
Loading historical data...

Documentation

Showing up to 5 results
|